Weather History for KRUE - January, 2014

Change the Weather History Date:

Thursday, January 2, 2014

  Actual Average (KHOT) Record (KHOT)
Temperature  
Mean Temperature 36 °F -  
Max Temperature 48 °F 47 °F 71 °F (2000)
Min Temperature 24 °F 28 °F 5 °F (1979)
Degree Days  
Heating Degree Days 28    
Moisture  
Dew Point 17 °F    
Average Humidity 53    
Maximum Humidity 64    
Minimum Humidity 38    
Precipitation  
Precipitation 0.00 in - - ()
Sea Level Pressure  
Sea Level Pressure 30.30 in    
Wind  
Wind Speed 12 mph (NW)    
Max Wind Speed 18 mph    
Max Gust Speed 26 mph    
Visibility 10 miles    
Events      
Averages and records for this station are not official NWS values.
T = Trace of Precipitation, MM = Missing Value Source: NWS Daily Summary

Daily Weather History Graph

Daily Weather History Graph

Search for Another Location

Airport or City:

Trip Planner

Search our weather history database for the weather conditions in past years. The results will help you decide how hot, cold, wet, or windy it might be!

Date:

Astronomy

Jan. 02, 2014 Rise Set
Actual Time 7:21 AM CST 5:11 PM CST
Civil Twilight 6:53 AM CST 5:40 PM CST
Nautical Twilight 6:21 AM CST 6:11 PM CST
Astronomical Twilight 5:50 AM CST 6:42 PM CST
Moon 8:07 AM CST (1/2) 7:04 PM CST (1/2)
Length of Visible Light 10h 46m
Length of Day
9h 50m
Waxing Crescent, 3% of the Moon is Illuminated
Jan 2
Waxing Crescent
Jan 7
First Quarter
Jan 15
Full
Jan 23
Last Quarter
Jan 30
New

Hourly Weather History & Observations

Time (CST) Temp. Windchill Dew Point Humidity Pressure Visibility Wind Dir Wind Speed Gust Speed Precip Events Conditions
12:53 AM 48.0 °F - 33.1 °F 56% 29.99 in 10.0 mi WNW 11.5 mph 19.6 mph N/A   Overcast
1:53 AM 42.1 °F 33.9 °F 28.9 °F 60% 30.03 in 10.0 mi WNW 17.3 mph 26.5 mph N/A   Overcast
2:53 AM 36.0 °F 26.3 °F 24.1 °F 62% 30.09 in 10.0 mi NW 16.1 mph 26.5 mph N/A   Mostly Cloudy
3:53 AM 33.1 °F 24.9 °F 21.9 °F 64% 30.14 in 10.0 mi WNW 10.4 mph 20.7 mph N/A   Overcast
4:09 AM 32.0 °F 22.5 °F 21.2 °F 64% 30.17 in 10.0 mi WNW 12.7 mph 20.7 mph N/A   Overcast
4:42 AM 30.2 °F 18.9 °F 17.6 °F 60% 30.18 in 10.0 mi WNW 16.1 mph 26.5 mph N/A   Overcast
4:53 AM 28.9 °F 16.5 °F 16.0 °F 58% 30.18 in 10.0 mi WNW 18.4 mph 26.5 mph N/A   Mostly Cloudy
5:53 AM 28.0 °F 18.1 °F 16.0 °F 61% 30.21 in 10.0 mi NW 11.5 mph 23.0 mph N/A   Clear
6:53 AM 27.0 °F 17.3 °F 16.0 °F 63% 30.26 in 10.0 mi WNW 10.4 mph - N/A   Clear
7:53 AM 25.0 °F 13.6 °F 14.0 °F 63% 30.30 in 10.0 mi NW 12.7 mph 23.0 mph N/A   Clear
8:53 AM 27.0 °F 15.6 °F 14.0 °F 58% 30.35 in 10.0 mi NW 13.8 mph - N/A   Clear
9:53 AM 28.9 °F 21.1 °F 15.1 °F 56% 30.36 in 10.0 mi WNW 8.1 mph - N/A   Clear
10:53 AM 30.0 °F 19.1 °F 17.1 °F 59% 30.37 in 10.0 mi WNW 15.0 mph - N/A   Clear
11:53 AM 33.1 °F 24.9 °F 17.1 °F 52% 30.35 in 10.0 mi WNW 10.4 mph 18.4 mph N/A   Clear
12:53 PM 35.1 °F 26.9 °F 16.0 °F 46% 30.32 in 10.0 mi WNW 11.5 mph 17.3 mph N/A   Clear
1:53 PM 37.0 °F 28.9 °F 17.1 °F 44% 30.32 in 10.0 mi West 12.7 mph 19.6 mph N/A   Clear
2:53 PM 37.9 °F 32.1 °F 17.1 °F 43% 30.32 in 10.0 mi West 8.1 mph - N/A   Clear
3:53 PM 41.0 °F 33.9 °F 17.1 °F 38% 30.33 in 10.0 mi WNW 12.7 mph - N/A   Clear
4:53 PM 39.0 °F 31.8 °F 15.1 °F 38% 30.35 in 10.0 mi NW 11.5 mph - N/A   Clear
5:53 PM 37.0 °F 32.4 °F 15.1 °F 41% 30.37 in 10.0 mi NNW 5.8 mph - N/A   Clear
6:53 PM 32.0 °F - 16.0 °F 52% 30.40 in 10.0 mi Calm Calm - N/A   Clear
7:53 PM 30.9 °F 27.5 °F 12.9 °F 47% 30.43 in 10.0 mi North 3.5 mph - N/A   Clear
8:53 PM 28.9 °F 21.1 °F 10.9 °F 47% 30.45 in 10.0 mi NE 8.1 mph - N/A   Clear
9:53 PM 27.0 °F 17.3 °F 8.1 °F 45% 30.48 in 10.0 mi NNE 10.4 mph - N/A   Clear
10:53 PM 26.1 °F 17.6 °F 8.1 °F 47% 30.49 in 10.0 mi NE 8.1 mph - N/A   Clear
11:53 PM 24.1 °F 13.7 °F 8.1 °F 51% 30.48 in 10.0 mi NNE 10.4 mph - N/A   Clear